This is the latest recevied weather packets stored in our database for station/object KG0HG. If no packets are shown the sender has not sent any weather packets the latest 10 day(s).
| Time | Temp. | Humidity | Pressure | Rain* | Wind** | Luminosity | Snow |
|---|---|---|---|---|---|---|---|
| 1777507718 | 15° C | 51% | 1018.1 hPa | 0 mm | - | 44 W/m² | - |
| 1777507415 | 15° C | 53% | 1018.1 hPa | 0 mm | - | 47 W/m² | - |
| 1777507112 | 15° C | 50% | 1018 hPa | 0 mm | - | 46 W/m² | - |
| 1777506810 | 15° C | 52% | 1018 hPa | 0 mm | - | 48 W/m² | - |
| 1777506506 | 15° C | 52% | 1018.1 hPa | 0 mm | - | 46 W/m² | - |
| 1777506202 | 15° C | 49% | 1018.1 hPa | 0 mm | - | 47 W/m² | - |
| 1777505899 | 15° C | 51% | 1018 hPa | 0 mm | - | 47 W/m² | - |
| 1777505594 | 15° C | 49% | 1018.1 hPa | 0 mm | - | 48 W/m² | - |
| 1777505291 | 15° C | 48% | 1018.1 hPa | 0 mm | - | 41 W/m² | - |
| 1777504988 | 15° C | 49% | 1018.2 hPa | 0 mm | - | 47 W/m² | - |
| 1777504685 | 15.56° C | 47% | 1018.2 hPa | 0 mm | - | 49 W/m² | - |
| 1777504382 | 15.56° C | 46% | 1017.9 hPa | 0 mm | - | 66 W/m² | - |
| 1777504076 | 15.56° C | 47% | 1018.3 hPa | 0 mm | - | 85 W/m² | - |
| 1777503773 | 15.56° C | 47% | 1018.2 hPa | 0 mm | - | 84 W/m² | - |
| 1777503470 | 15.56° C | 49% | 1018.3 hPa | 0 mm | - | 73 W/m² | - |
| 1777503165 | 15° C | 48% | 1018.2 hPa | 0 mm | - | 98 W/m² | - |
| 1777502863 | 15.56° C | 48% | 1018.2 hPa | 0 mm | - | 74 W/m² | - |
| 1777502561 | 15.56° C | 48% | 1018.5 hPa | 0 mm | - | 84 W/m² | - |
| 1777502257 | 15.56° C | 46% | 1018 hPa | 0 mm | - | 95 W/m² | - |
| 1777501954 | 15.56° C | 50% | 1018.2 hPa | 0 mm | - | 92 W/m² | - |
| 1777501652 | 15.56° C | 52% | 1018.3 hPa | 0 mm | - | 101 W/m² | - |
| 1777501348 | 15.56° C | 52% | 1018.1 hPa | 0 mm | - | 106 W/m² | - |
| 1777501046 | 15.56° C | 49% | 1017.9 hPa | 0 mm | - | 108 W/m² | - |
| 1777500744 | 15.56° C | 50% | 1018.1 hPa | 0 mm | - | 114 W/m² | - |
| 1777500441 | 15.56° C | 50% | 1018 hPa | 0 mm | - | 108 W/m² | - |
* Rain latest hour (hover to see other rain measurements)
** Current wind speed in m/s (hover to see current wind gust speed)